TimeCEST,TemperatureF,Dew PointF,Humidity,Sea Level PressureIn,VisibilityMPH,Wind Direction,Wind SpeedMPH,Gust SpeedMPH,PrecipitationIn,Events,Conditions,WindDirDegrees,DateUTC
2:00 AM,67,48,40,30.18,19,East,4.6,,,,,80,2013-06-29 00:00:00
6:00 AM,60.8,50.0,68,30.21,-9999.0,Calm,Calm,-,N/A,,Clear,0,2013-06-29 04:00:00
6:30 AM,59.0,50.0,72,30.21,-9999.0,Calm,Calm,-,N/A,,Clear,0,2013-06-29 04:30:00
7:00 AM,59.0,50.0,72,30.21,-9999.0,Calm,Calm,-,N/A,,Clear,0,2013-06-29 05:00:00
7:30 AM,57.2,50.0,77,30.24,-9999.0,Calm,Calm,-,N/A,,Clear,0,2013-06-29 05:30:00
8:00 AM,60,49,59,30.21,12,Calm,Calm,,,,,,2013-06-29 06:00:00
8:00 AM,62.6,51.8,68,30.24,-9999.0,Calm,Calm,-,N/A,,Clear,0,2013-06-29 06:00:00
8:30 AM,62.6,51.8,68,30.24,-9999.0,Calm,Calm,-,N/A,,Clear,0,2013-06-29 06:30:00
9:00 AM,68.0,53.6,60,30.24,-9999.0,Variable,1.2,-,N/A,,Clear,0,2013-06-29 07:00:00
9:30 AM,71.6,51.8,50,30.24,-9999.0,Variable,1.2,-,N/A,,Clear,0,2013-06-29 07:30:00
10:00 AM,71.6,51.8,50,30.24,-9999.0,Variable,1.2,-,N/A,,Clear,0,2013-06-29 08:00:00
10:30 AM,77.0,50.0,39,30.21,-9999.0,ENE,3.5,-,N/A,,Clear,70,2013-06-29 08:30:00
11:00 AM,77.0,48.2,36,30.21,-9999.0,NE,3.5,-,N/A,,Clear,50,2013-06-29 09:00:00
11:30 AM,80.6,46.4,30,30.21,-9999.0,Variable,2.3,-,N/A,,Clear,0,2013-06-29 09:30:00
12:00 PM,82.4,46.4,28,30.21,-9999.0,Variable,1.2,-,N/A,,Clear,0,2013-06-29 10:00:00
12:30 PM,84.2,46.4,27,30.21,-9999.0,Variable,1.2,-,N/A,,Clear,0,2013-06-29 10:30:00
1:00 PM,84.2,46.4,27,30.21,-9999.0,Variable,1.2,-,N/A,,Clear,0,2013-06-29 11:00:00
1:30 PM,87.8,46.4,24,30.18,-9999.0,Variable,1.2,-,N/A,,Clear,0,2013-06-29 11:30:00
2:00 PM,88,46,14,30.06,19,NE,2.3,,,,,40,2013-06-29 12:00:00
2:00 PM,87.8,46.4,24,30.18,-9999.0,Variable,2.3,-,N/A,,Clear,0,2013-06-29 12:00:00
2:30 PM,91.4,44.6,20,30.15,-9999.0,Variable,2.3,-,N/A,,Clear,0,2013-06-29 12:30:00
3:00 PM,91.4,44.6,20,30.15,-9999.0,Variable,1.2,-,N/A,,Clear,0,2013-06-29 13:00:00
3:30 PM,91.4,42.8,18,30.15,-9999.0,Variable,3.5,-,N/A,,Clear,0,2013-06-29 13:30:00
4:00 PM,91.4,42.8,18,30.15,-9999.0,Variable,2.3,-,N/A,,Clear,0,2013-06-29 14:00:00
4:30 PM,93.2,42.8,17,30.12,-9999.0,Variable,2.3,-,N/A,,Clear,0,2013-06-29 14:30:00
5:00 PM,93.2,42.8,17,30.12,-9999.0,Variable,1.2,-,N/A,,Clear,0,2013-06-29 15:00:00
5:30 PM,95.0,41.0,15,30.09,-9999.0,Variable,2.3,-,N/A,,Clear,0,2013-06-29 15:30:00
6:00 PM,95.0,41.0,15,30.09,-9999.0,Variable,2.3,-,N/A,,Clear,0,2013-06-29 16:00:00
6:30 PM,93.2,41.0,16,30.09,-9999.0,Variable,1.2,-,N/A,,Clear,0,2013-06-29 16:30:00
7:00 PM,93.2,42.8,17,30.09,-9999.0,SSW,5.8,-,N/A,,Clear,210,2013-06-29 17:00:00
7:30 PM,91.4,46.4,21,30.09,-9999.0,SSE,12.7,-,N/A,,Clear,160,2013-06-29 17:30:00
8:00 PM,89,47,14,29.97,19,South,10.4,,,,,180,2013-06-29 18:00:00
8:00 PM,89.6,48.2,24,30.09,-9999.0,South,10.4,-,N/A,,Clear,180,2013-06-29 18:00:00
8:30 PM,86.0,48.2,27,30.09,-9999.0,South,9.2,-,N/A,,Clear,180,2013-06-29 18:30:00
9:00 PM,84.2,46.4,27,30.09,-9999.0,South,9.2,-,N/A,,Clear,170,2013-06-29 19:00:00
9:30 PM,82.4,48.2,30,30.12,-9999.0,NE,3.5,-,N/A,,Clear,50,2013-06-29 19:30:00
10:00 PM,80.6,44.6,28,30.12,-9999.0,Variable,3.5,-,N/A,,Clear,0,2013-06-29 20:00:00
10:30 PM,80.6,44.6,28,30.15,-9999.0,Variable,1.2,-,N/A,,Clear,0,2013-06-29 20:30:00
11:00 PM,77.0,44.6,32,30.15,-9999.0,SE,3.5,-,N/A,,Clear,140,2013-06-29 21:00:00